Tracking 34138 objects as of 15-May-2026
HD Live streaming from Space Station
objects crossing your sky now

STARLINK-37072

Track STARLINK-37072 now!
10-day predictions
STARLINK-37072 is classified as:


NORAD ID: 68153
Int'l Code: 2026-049M
Perigee: 472.3 km
Apogee: 473.0 km
Inclination: 97.3 °
Period: 93.9 minutes
Semi major axis: 6843 km
RCS: Unknown
Launch date: March 13, 2026
Source: United States (US)
Launch site: AIR FORCE WESTERN TEST RANGE (AFWTR)
Your satellite tracking list
Your tracking list is empty




NASA's NSSDC Master Catalog

Two Line Element Set (TLE):
1 68153U 26049M   26135.02392012  .00017473  00000-0  54215-3 0  9992
2 68153  97.2856 156.8314 0000507  94.9593 265.1708 15.33454714  9815
Source of the keplerian elements: AFSPC